Glasgow, MT

3:14 PM MDT on August 20, 2017 (GMT -0600)
Wokal-Glasgow International

Weather History for KGGW - May, 2013

Change the Weather History Date:

Friday, May 17, 2013

  Actual Average Record
Temperature  
Mean Temperature 62 °F 55 °F  
Max Temperature 72 °F 68 °F 92 °F (1948)
Min Temperature 52 °F 43 °F 22 °F (1918)
Degree Days  
Heating Degree Days 3 10  
Month to date heating degree days 162 212  
Since 1 July heating degree days 8421 8219  
Cooling Degree Days 0 0  
Month to date cooling degree days 9 0  
Year to date cooling degree days 9 1  
Growing Degree Days 12 (Base 50)    
Moisture  
Dew Point 51 °F    
Average Humidity 72    
Maximum Humidity 100    
Minimum Humidity 44    
Precipitation  
Precipitation 0.01 in 0.06 in 1.12 in (1978)
Month to date precipitation 0.16 0.89  
Year to date precipitation 2.97 2.79  
Snow  
Snow 0.00 in 0.10 in T in (1994)
Month to date snowfall 0.0 0.9  
Since 1 July snowfall 62.3 34.5  
Snow Depth 0.00 in    
Sea Level Pressure  
Sea Level Pressure 29.84 in    
Wind  
Wind Speed 7 mph (East)    
Max Wind Speed 17 mph    
Max Gust Speed 22 mph    
Visibility 9 miles    
Events Rain    
T = Trace of Precipitation, MM = Missing Value Source: NWS Daily Summary

Daily Weather History Graph

Daily Weather History Graph

Search for Another Location

Airport or City:

Trip Planner

Search our weather history database for the weather conditions in past years. The results will help you decide how hot, cold, wet, or windy it might be!

Date:

Astronomy

May. 17, 2013 Rise Set
Actual Time 5:24 AM MDT 8:42 PM MDT
Civil Twilight 4:46 AM MDT 9:20 PM MDT
Nautical Twilight 3:56 AM MDT 10:10 PM MDT
Astronomical Twilight 2:53 AM MDT 11:14 PM MDT
Moon 12:13 PM MDT (5/17) 1:23 AM MDT (5/17)
Length of Visible Light 16h 33m
Length of Day
15h 18m
Waxing Crescent, 46% of the Moon is Illuminated
May 17
Waxing Crescent
May 17
First Quarter
May 24
Full
May 31
Last Quarter
Jun 8
New

Hourly Weather History & Observations

Time (MDT) Temp. Dew Point Humidity Pressure Visibility Wind Dir Wind Speed Gust Speed Precip Events Conditions
12:53 AM 55.0 °F 52.0 °F 89% 29.86 in 10.0 mi NNW 5.8 mph - 0.01 in Rain Light Rain
1:53 AM 55.0 °F 52.0 °F 89% 29.84 in 10.0 mi ENE 8.1 mph - 0.01 in Rain Light Rain
2:53 AM 54.0 °F 53.1 °F 97% 29.83 in 10.0 mi East 11.5 mph - 0.00 in   Overcast
3:53 AM 54.0 °F 52.0 °F 93% 29.84 in 7.0 mi East 8.1 mph - 0.00 in Rain Light Rain
4:53 AM 53.1 °F 51.1 °F 93% 29.84 in 7.0 mi East 6.9 mph - 0.00 in   Overcast
5:53 AM 52.0 °F 51.1 °F 97% 29.86 in 5.0 mi SE 4.6 mph - N/A   Overcast
6:53 AM 52.0 °F 51.1 °F 97% 29.87 in 5.0 mi ESE 6.9 mph - N/A   Overcast
7:53 AM 53.1 °F 51.1 °F 93% 29.89 in 6.0 mi SSE 8.1 mph - N/A   Overcast
8:53 AM 54.0 °F 52.0 °F 93% 29.88 in 7.0 mi ESE 10.4 mph - N/A   Overcast
9:53 AM 57.0 °F 52.0 °F 83% 29.88 in 9.0 mi SE 8.1 mph - N/A   Overcast
10:06 AM 57.2 °F 51.8 °F 82% 29.87 in 10.0 mi ESE 5.8 mph - N/A   Overcast
10:46 AM 59.0 °F 51.8 °F 77% 29.87 in 10.0 mi ESE 6.9 mph - N/A   Overcast
10:53 AM 59.0 °F 52.0 °F 78% 29.88 in 10.0 mi ESE 6.9 mph - N/A   Overcast
11:53 AM 63.0 °F 52.0 °F 67% 29.87 in 10.0 mi ESE 6.9 mph - N/A   Overcast
12:16 PM 64.4 °F 51.8 °F 64% 29.86 in 10.0 mi Calm Calm - N/A   Overcast
12:23 PM 62.6 °F 51.8 °F 68% 29.86 in 10.0 mi SE 4.6 mph - N/A   Overcast
12:49 PM 64.4 °F 51.8 °F 64% 29.85 in 10.0 mi ENE 4.6 mph - N/A   Mostly Cloudy
12:53 PM 64.4 °F 51.8 °F 64% 29.85 in 10.0 mi ESE 5.8 mph - N/A   Mostly Cloudy
1:53 PM 66.0 °F 50.0 °F 56% 29.84 in 10.0 mi ENE 5.8 mph - N/A   Overcast
2:53 PM 68.0 °F 50.0 °F 52% 29.83 in 10.0 mi Variable 3.5 mph - N/A   Overcast
3:53 PM 69.1 °F 48.0 °F 47% 29.81 in 10.0 mi NE 3.5 mph - N/A   Mostly Cloudy
4:53 PM 71.1 °F 48.9 °F 45% 29.80 in 10.0 mi Variable 4.6 mph - N/A   Scattered Clouds
5:53 PM 69.1 °F 48.0 °F 47% 29.80 in 10.0 mi Calm Calm - N/A   Overcast
6:53 PM 63.0 °F 51.1 °F 65% 29.82 in 10.0 mi NNE 17.3 mph - N/A   Scattered Clouds
7:53 PM 62.1 °F 50.0 °F 65% 29.82 in 10.0 mi NNE 15.0 mph - N/A   Clear
8:53 PM 60.1 °F 48.9 °F 67% 29.83 in 10.0 mi NE 10.4 mph - N/A   Clear
9:53 PM 61.0 °F 48.0 °F 62% 29.83 in 10.0 mi NE 9.2 mph - N/A   Overcast
10:53 PM 61.0 °F 48.0 °F 62% 29.82 in 10.0 mi NE 8.1 mph - N/A   Overcast
11:53 PM 60.1 °F 48.9 °F 67% 29.82 in 10.0 mi NE 5.8 mph - N/A   Overcast